Regional Weather Roundup
Issued by NWS Goodland, KS

Home | Current Version | Previous Version | Graphics & Text | Print | Product List | Glossary On
Versions: 1 2 3 4 5 6 7 8 9 10 11 12 13 14 15 16 17 18 19 20 21 22 23 24 25 26 27 28 29 30 31 32 33 34 35 36 37 38 39 40 41 42 43 44 45 46 47 48 49 50
000
ASUS43 KGLD 291508
RWRGLD

GOODLAND FORECAST AREA HOURLY WEATHER ROUNDUP
NATIONAL WEATHER SERVICE GOODLAND KS
900 AM MDT SUN MAY 29 2016

...OFFICIAL OBSERVATIONS...

CITY           SKY/WX    TMP DP  RH WIND       PRES   REMARKS
GOODLAND KS    SUNNY     68  51  54 S12       30.14S
HILL CITY KS   MOSUNNY   73  57  57 S9        30.12S
IMPERIAL NEB   SUNNY     64  54  69 CALM      30.14S
MCCOOK NEB     SUNNY     66  54  65 CALM      30.13S
AKRON CO       SUNNY     66  47  50 SW7       30.17S
BURLINGTON CO  SUNNY     71  49  45 S13       30.16S
LIMON CO       CLOUDY    60  48  64 VRB3      30.20S
$$

...UNOFFICIAL OBSERVATIONS...

CITY           SKY/WX    TMP DP  RH WIND       PRES   REMARKS
GOVE KS          N/A     74  32  21 MISG        N/A
LENORA KS        N/A     72  32  23 MISG        N/A
SHARON SPRINGS   N/A     67  59  75 S10         N/A
KIT CARSON CO    N/A     63  52  67 CALM        N/A
YUMA CO          N/A     67  50  54 SW5         N/A
$$




USA.gov is the U.S. government's official web portal to all federal, state and local government web resources and services.